CAPE
0 0 0 0 0 0 0 0 0 0 0 0 0 0 0 0 0 0 0 0 0 0 0 0 0 0 0 0 0 945 1922 1532 1703 1653 1691 1697 1678 1630 1560 1534 1571 1735 1960 1941 2071 2155 2157 2113 2025 1900 1637 1293 1205 1114 1053 1072 954 1071 1069 838 776 766 568 424 621 636 487 378 483 528 610 699 798 835 878 872 923 961 1045 1086 1131 1020 820 789 783 739
0 0 0 0 0 0 0 0 0 0 0 0 0 0 0 0 0 0 0 0 0 0 0 0 0 0 0 0 36 1021 1670 1458 1536 1488 1518 1586 1570 1472 1386 1382 1395 1598 1854 2066 2159 2231 2231 2205 2160 2076 1770 1270 1233 1204 1185 1210 1231 1101 1136 1052 822 615 503 602 800 762 627 524 653 654 704 776 782 790 776 804 832 857 861 958 995 800 642 660 629 588
0 0 0 0 0 0 0 0 0 0 0 0 0 0 0 0 0 0 0 0 0 0 0 0 0 0 0 0 91 693 1192 1317 1423 1431 1429 1515 1527 1412 1306 1329 1402 1578 1952 2127 2207 2224 2248 2224 2235 2130 1889 1486 1278 1304 1271 1269 1332 1257 1222 1180 964 641 545 625 790 773 654 714 730 674 751 726 701 706 731 763 786 793 870 866 839 562 504 522 525 516
0 0 0 0 0 0 0 0 0 0 0 0 0 0 0 0 0 0 0 0 0 0 0 0 0 0 4 134 250 378 844 959 1389 1431 1357 1404 1443 1345 1294 1283 1387 1593 2004 2200 2264 2281 2269 2273 2244 2158 1972 1618 1398 1402 1388 1365 1360 1361 1312 1298 1015 766 596 596 839 786 675 690 636 681 687 662 675 734 786 799 782 839 872 850 670 440 442 454 447 402
0 0 0 0 0 0 0 0 0 0 0 0 0 0 0 0 0 0 0 0 0 0 0 0 0 0 0 100 84 490 609 526 858 1383 1423 1436 1376 1305 1158 1079 1260 1533 1887 2214 2298 2314 2286 2234 2200 2123 1893 1677 1572 1520 1528 1485 1439 1444 1403 1386 1014 759 688 636 872 879 723 680 632 628 613 680 606 690 766 784 819 861 886 841 601 422 405 410 376 367
0 0 0 0 0 0 0 0 0 0 0 0 0 0 0 0 0 0 0 0 0 0 0 0 0 0 0 0 0 58 458 488 593 913 1211 1320 1363 1267 1228 1149 1123 1378 1718 2139 2371 2379 2252 2105 1970 1967 1874 1706 1718 1702 1652 1617 1549 1538 1522 1459 1082 843 862 993 982 870 665 740 694 686 715 694 642 710 739 795 760 792 842 739 443 376 364 345 392 453
0 0 0 0 0 0 0 0 0 0 0 0 0 0 0 0 0 0 0 0 0 0 0 0 0 0 0 0 3 165 393 484 534 638 830 1080 1255 1290 1301 1241 1123 1208 1587 2053 2335 2405 2356 2166 1850 1649 1647 1653 1690 1803 1801 1738 1683 1621 1584 1488 1122 881 845 914 904 827 694 782 768 690 689 715 720 706 726 781 834 842 708 539 357 346 366 428 466 366
0 0 0 0 0 0 0 0 0 0 0 0 0 0 0 0 0 0 0 0 0 0 0 0 0 0 0 0 0 267 381 417 471 541 729 958 1155 1248 1284 1284 1212 1161 1407 1792 2254 2386 2320 2032 1671 1597 1599 1609 1596 1685 1804 1834 1768 1733 1646 1467 1182 939 914 962 915 856 755 832 724 740 772 841 874 812 772 825 856 815 663 442 402 410 503 472 405 297
0 0 0 0 0 0 0 0 0 0 0 0 0 0 0 0 0 0 0 0 0 0 0 0 0 0 0 0 171 612 414 448 486 571 677 845 1056 1140 1158 1202 1227 1193 1220 1611 2157 2408 2266 1917 1621 1568 1517 1525 1537 1576 1668 1772 1829 1799 1729 1601 1322 980 996 1057 939 857 901 791 820 837 896 984 1006 1028 1045 866 798 759 541 444 473 521 512 444 369 280
0 0 0 0 0 0 0 0 0 0 0 0 0 0 0 0 0 0 0 0 0 0 0 0 0 0 0 0 202 560 546 440 520 640 678 712 891 1034 1067 1122 1189 1191 1198 1544 2141 2462 2369 1965 1517 1428 1384 1414 1544 1601 1655 1737 1789 1807 1765 1649 1317 1076 1145 1096 1012 1044 1010 940 937 972 1005 1087 1099 1004 951 942 802 656 542 504 549 523 470 448 409 190
0 0 0 0 0 0 0 0 0 0 0 0 0 0 0 0 0 0 0 0 0 0 0 0 0 0 0 0 4 294 573 609 532 560 643 663 735 907 997 1054 1153 1209 1291 1476 2180 2475 2450 1965 1422 1380 1464 1484 1534 1663 1722 1735 1818 1823 1795 1540 1183 1208 1251 1177 1207 1168 1164 1134 1089 1111 1124 1112 1095 903 827 931 760 604 522 550 577 543 513 471 358 38
0 0 0 0 0 0 0 0 0 0 0 0 0 0 0 0 0 0 0 0 0 0 0 0 0 0 0 0 0 228 522 603 414 432 635 724 712 774 914 998 1074 1201 1339 1712 2430 2614 2379 1643 1318 1464 1595 1624 1749 1648 1517 1575 1651 1701 1750 1491 1341 1322 1218 1255 1268 1251 1263 1231 1227 1222 1089 1058 999 708 783 985 710 557 537 554 611 547 524 424 78 0
0 0 0 0 0 0 0 0 0 0 0 0 0 0 0 0 0 0 0 0 0 0 0 0 0 0 0 0 0 3 245 453 636 426 462 640 736 799 837 899 966 1081 1411 1965 2525 2573 2038 1331 1220 1474 1588 1610 1768 1750 1680 1576 1584 1667 1735 1610 1455 1259 1212 1261 1294 1299 1292 1266 1260 1203 1086 906 828 791 810 988 755 543 574 606 638 552 436 213 0 0
0 0 0 0 0 0 0 0 0 0 0 0 0 0 0 0 0 0 0 0 0 0 0 0 0 0 0 0 0 0 0 243 561 648 497 540 672 792 861 834 940 1325 1792 2253 2270 1793 1325 1384 1584 1536 1559 1691 1888 1891 1664 1437 1436 1662 1732 1562 1312 1173 1174 1243 1286 1268 1248 1243 1247 1212 1060 882 862 848 772 795 666 568 623 670 608 468 263 53 0 0
0 0 0 0 0 0 0 0 0 0 0 0 0 0 0 0 0 0 0 0 0 0 0 0 0 0 0 0 0 35 287 0 300 701 758 738 773 835 805 876 1060 1525 1968 2077 1606 1206 1111 1328 1606 1703 1803 1814 1867 1731 1672 1430 1313 1583 1619 1384 1149 1075 1136 1206 1271 1242 1222 1205 1212 1148 1006 1002 1002 862 734 749 642 659 680 644 538 332 196 0 0 0
0 0 0 0 0 0 0 0 0 0 0 0 0 0 0 0 0 0 0 0 0 0 0 0 0 0 0 0 0 145 0 0 381 736 840 898 891 869 869 864 935 1175 1485 1583 1343 1086 1068 1260 1459 1649 1704 1687 1532 1469 1500 1363 1329 1558 1503 1249 1120 1058 995 1141 1192 1242 1206 1208 1202 1110 1045 1066 1044 897 716 758 716 747 709 642 444 279 218 195 0 0
0 0 0 0 0 0 0 0 0 0 0 0 0 0 0 0 0 0 0 0 0 0 0 0 0 0 0 0 106 484 213 608 627 779 895 954 1005 991 955 929 972 1027 1056 1032 1021 1014 1075 1334 1493 1606 1632 1423 1180 1335 1516 1478 1364 1487 1448 1216 1020 993 918 986 1082 1169 1254 1321 1264 1164 1056 1082 1037 870 718 774 787 793 728 555 397 293 260 225 24 0
0 0 0 0 0 0 0 0 0 0 0 0 0 0 0 0 0 0 0 0 0 0 0 0 0 0 0 0 0 427 159 735 806 821 936 976 1022 1057 1028 1014 1016 1068 1136 1171 1112 1059 1179 1347 1435 1548 1531 1192 1123 1327 1524 1541 1423 1436 1406 1191 1031 964 919 855 924 1107 1243 1320 1254 1094 967 946 890 759 813 838 852 801 663 496 344 285 282 234 148 0
0 0 0 0 0 0 0 0 0 0 0 0 0 0 0 0 0 0 0 0 0 0 0 0 0 0 0 0 0 0 231 496 816 900 945 1024 1004 1018 1070 1065 1042 1036 1184 1182 1131 1144 1294 1379 1412 1406 1197 1124 1098 1275 1546 1602 1478 1446 1298 1256 1128 1036 970 902 983 1220 1214 1172 1229 1027 846 825 805 851 899 907 881 753 599 444 342 342 325 248 176 0
0 0 0 0 0 0 0 0 0 0 0 0 0 0 0 0 0 0 0 0 0 0 0 0 0 0 0 0 0 0 49 369 723 870 1007 992 939 946 1030 1069 1015 1022 1125 1247 1267 1266 1317 1389 1463 1393 1130 1182 1132 1200 1488 1641 1539 1404 1324 1254 1201 1122 1043 940 1056 1263 1185 1086 1183 1114 852 917 898 942 979 969 848 695 565 421 392 394 302 240 208 0
0 0 0 0 0 0 0 0 0 0 0 0 0 0 0 0 0 0 0 0 0 0 0 0 0 0 0 0 0 0 0 372 702 725 892 932 900 926 992 1054 1062 1046 1182 1313 1339 1342 1393 1422 1404 1498 1364 1257 1182 1150 1473 1646 1557 1434 1337 1251 1220 1177 1082 976 922 1117 1061 1071 1171 1118 985 930 935 985 984 892 727 622 498 444 414 365 250 189 238 3
0 0 0 0 0 0 0 0 0 0 0 0 0 0 0 0 0 0 0 0 0 0 0 0 0 0 0 0 0 0 0 283 572 656 752 882 837 885 958 1003 1046 1100 1224 1327 1351 1315 1264 1269 1284 1408 1409 1356 1246 1197 1431 1619 1600 1443 1343 1258 1230 1161 1083 961 842 1038 1061 1130 1154 1056 916 828 934 972 909 779 686 554 433 372 358 254 185 152 212 0
0 0 0 0 0 0 0 0 0 0 0 0 0 0 0 0 0 0 0 0 0 0 0 0 0 0 0 0 0 0 0 62 479 600 686 807 872 866 913 991 1083 1099 1165 1309 1352 1349 1326 1265 1233 1354 1506 1461 1331 1289 1381 1557 1624 1480 1356 1227 1126 1034 982 939 908 1134 1127 1150 1092 1007 883 784 857 824 760 706 628 506 399 370 283 226 165 0 207 0
6 0 0 0 0 0 0 0 0 0 0 0 0 0 0 0 0 0 0 0 0 0 0 0 0 0 0 0 0 0 0 102 544 587 673 763 878 934 923 1016 1071 1128 1202 1254 1348 1344 1332 1294 1311 1445 1532 1511 1386 1328 1353 1473 1568 1540 1404 1258 1113 1060 1027 928 955 1243 1235 1164 1058 942 824 758 694 719 705 628 540 452 370 336 260 190 39 10 217 192
0 0 0 0 0 0 0 0 0 0 0 0 0 0 0 0 0 0 0 0 0 0 0 0 0 0 0 0 0 0 158 598 659 736 714 750 851 952 1041 1041 1106 1176 1260 1252 1337 1363 1328 1318 1334 1483 1636 1563 1459 1378 1367 1374 1445 1448 1389 1273 1176 1102 1013 875 1066 1216 1224 1158 1078 954 842 724 687 685 632 568 485 443 398 303 240 76 20 128 257 167
0 1 0 0 0 0 0 0 0 0 0 0 0 0 0 0 0 0 0 0 0 0 0 0 0 0 0 0 0 100 419 656 765 844 831 850 842 887 992 1061 1049 1151 1190 1249 1234 1392 1341 1322 1416 1401 1644 1646 1594 1506 1372 1303 1315 1384 1419 1379 1296 1213 964 1000 1162 1203 1198 1140 1065 938 772 682 681 646 614 580 560 489 391 313 233 52 58 271 260 171
3 1 0 0 0 0 0 0 0 0 0 0 0 0 0 0 0 0 0 0 0 0 0 0 0 0 0 0 0 48 374 589 841 874 873 892 920 937 943 985 1031 1082 1176 1173 1172 1361 1451 1360 1280 1364 1543 1691 1662 1632 1568 1419 1301 1317 1317 1293 1144 998 902 1106 1186 1196 1170 1073 922 826 732 690 669 638 634 612 548 478 405 331 241 21 228 296 227 50
0 0 0 0 0 0 0 0 0 0 0 0 0 0 0 0 0 0 0 0 0 0 0 0 0 0 0 0 0 0 165 420 704 884 893 898 994 999 977 876 975 1103 1138 1258 1210 1327 1474 1432 1349 1340 1414 1506 1589 1597 1711 1631 1334 1248 1191 1130 1070 992 1009 1099 1131 1139 1041 940 851 812 770 708 689 721 692 568 504 472 420 324 247 206 261 280 179 0
0 1 0 0 0 0 0 0 0 0 0 0 0 0 0 0 0 0 0 0 0 0 0 0 0 0 0 0 0 0 9 330 550 802 899 939 980 1006 1005 946 1002 1136 1219 1303 1310 1322 1409 1448 1386 1272 1240 1259 1360 1443 1514 1564 1322 1221 1263 1177 1165 1124 1108 1100 1077 1032 932 877 876 847 800 778 705 611 528 486 443 422 394 300 236 217 275 247 155 0
3 11 0 0 0 0 0 0 0 0 0 0 0 0 0 0 0 0 0 0 0 0 0 0 0 0 0 0 0 66 0 256 496 712 870 948 1008 1034 1082 1072 1054 1175 1283 1368 1367 1336 1351 1366 1410 1410 1393 1354 1316 1315 1310 1495 1431 1241 1250 1439 1259 1147 1133 1130 1049 955 879 842 841 842 828 736 625 530 490 467 490 432 358 282 233 226 257 202 0 0
14 14 0 0 0 0 0 0 0 0 0 0 0 0 0 0 0 0 0 0 0 0 0 0 0 0 0 0 0 0 252 455 674 759 869 972 1020 1024 1074 1126 1131 1187 1297 1387 1426 1371 1314 1259 1286 1400 1490 1541 1435 1315 1244 1302 1357 1262 1258 1270 1003 876 1011 1182 1086 861 782 751 756 789 814 744 628 536 567 540 438 420 354 302 247 239 224 118 109 0
25 4 0 0 0 0 0 0 0 0 0 0 0 0 0 0 0 0 0 0 0 0 0 0 3 0 76 84 294 372 454 618 761 851 934 1008 1001 1001 1028 1071 1130 1176 1234 1338 1374 1441 1372 1262 1292 1392 1490 1549 1541 1470 1362 1275 1275 1276 1356 1335 1001 880 974 1195 1052 842 700 613 670 783 784 720 640 459 489 530 496 426 386 362 267 242 208 63 157 40
10 0 0 0 0 0 0 0 0 0 0 0 0 0 0 0 0 0 0 0 0 0 0 0 0 0 375 514 424 578 524 683 817 904 1017 1052 1054 1057 987 970 1017 1068 1136 1229 1293 1381 1402 1322 1304 1356 1442 1519 1564 1525 1498 1404 1250 1205 1318 1425 1050 771 987 1142 992 871 697 619 644 705 736 671 555 419 442 454 424 431 442 382 277 275 213 192 184 170
2 0 0 0 0 0 0 0 0 0 0 0 0 0 0 0 0 0 0 0 0 0 0 0 0 64 179 487 521 488 580 726 844 990 1010 1078 1098 1099 1062 1009 986 1009 1016 1149 1240 1319 1327 1287 1293 1339 1404 1445 1459 1387 1398 1433 1443 1269 1052 1015 1101 881 847 1112 993 888 728 618 644 693 736 643 539 364 348 388 456 494 430 290 296 296 282 262 259 217
6 1 0 0 0 0 0 0 0 0 0 0 0 0 0 0 0 0 0 0 0 0 0 0 0 0 163 396 478 609 616 680 775 1076 1142 1171 1165 1133 1145 1080 1042 976 1017 1055 1119 1240 1271 1262 1291 1335 1363 1371 1371 1370 1393 1389 1387 1308 1011 890 923 786 680 906 1114 964 837 800 695 679 699 673 508 344 321 423 536 436 288 262 297 306 310 309 273 211
11 9 1 3 3 0 0 0 0 0 0 0 18 0 0 0 0 0 0 0 0 0 0 0 0 0 272 603 545 698 723 896 883 1124 1268 1320 1283 1245 1196 1141 1062 1030 1004 976 1031 1131 1197 1196 1248 1319 1371 1392 1404 1393 1331 1277 1159 996 873 764 677 835 968 912 1028 1118 994 798 642 648 679 627 456 292 390 509 392 275 269 266 286 304 287 255 218 208
10 8 4 33 6 0 0 0 0 0 72 96 98 35 1 0 0 0 0 0 0 0 0 0 0 130 414 609 780 748 913 1025 1085 1138 1272 1459 1446 1384 1307 1220 1139 1068 990 975 979 1035 1077 1098 1114 1257 1347 1355 1302 1277 1247 1154 1006 874 817 674 835 745 865 837 886 1103 1045 719 591 531 547 516 422 387 552 458 247 239 246 198 104 103 227 217 196 113
2 5 3 8 2 1 41 0 0 34 55 22 81 92 21 0 0 0 0 0 0 68 62 0 10 277 484 720 915 910 939 860 612 1168 1315 1450 1514 1516 1437 1362 1231 1163 1100 1064 998 1019 1028 1024 1048 1183 1335 1354 1305 1254 1136 1034 952 862 869 788 720 774 686 589 656 943 932 641 420 413 420 443 439 540 590 281 110 49 64 27 131 63 5 135 85 22
6 2 1 0 29 0 0 0 0 22 10 0 133 91 61 0 0 0 0 0 4 158 10 11 0 231 526 777 954 1005 566 298 295 581 1109 1415 1493 1519 1555 1463 1408 1309 1254 1164 1162 1116 1106 1089 1024 1090 1204 1329 1362 1305 1260 1202 1143 914 644 594 705 782 834 782 593 635 699 480 345 346 437 449 537 656 581 326 116 106 108 107 104 38 1 1 55 150
0 0 0 1 2 0 0 0 0 0 76 149 179 80 0 0 0 0 0 0 0 290 219 0 35 176 506 769 977 933 378 241 200 293 838 1280 1429 1523 1545 1557 1516 1521 1428 1336 1272 1215 1202 1165 1095 1017 1043 1163 1291 1348 1362 1331 1163 882 520 37 488 710 791 749 646 578 504 440 426 547 423 516 619 684 426 143 167 188 131 107 110 53 18 65 176 234
0 0 0 0 0 2 0 0 52 57 163 226 171 0 0 0 0 0 0 0 0 262 175 44 0 150 533 875 952 844 616 223 230 302 577 1111 1364 1444 1487 1540 1591 1558 1513 1423 1382 1281 1233 1205 1183 1166 1113 1073 1138 1221 1273 1274 1168 839 602 395 46 542 644 624 510 229 264 431 526 501 537 605 646 592 256 89 244 252 157 124 101 33 28 126 194 165
0 0 0 0 0 0 0 0 12 178 214 153 154 0 0 0 0 0 181 104 337 292 320 242 140 256 619 899 927 724 658 240 173 206 392 912 1233 1350 1418 1481 1547 1566 1542 1506 1448 1367 1332 1250 1227 1212 1190 1210 1238 1264 1286 1258 1096 957 629 536 495 581 394 263 194 285 173 161 343 416 510 540 491 425 185 185 192 211 252 185 101 12 20 128 136 132
0 0 0 0 0 0 2 76 22 180 19 334 71 0 209 0 0 195 491 488 440 364 293 174 218 383 593 912 929 602 690 297 142 194 404 795 1087 1263 1362 1424 1449 1494 1487 1411 1342 1332 1292 1288 1248 1189 1160 1159 1135 1186 1243 1210 1092 995 941 902 745 436 314 344 150 274 413 471 349 444 432 401 344 322 37 138 162 170 207 188 102 16 29 137 124 228
0 0 0 0 0 7 0 9 160 707 408 327 240 300 382 339 431 465 396 697 461 414 253 163 224 386 592 874 966 741 598 248 237 310 597 828 1082 1213 1325 1424 1440 1434 1458 1425 1393 1227 1133 1110 1088 1092 1161 1223 1257 1219 1224 1215 1076 947 952 948 858 787 717 566 391 335 398 474 467 399 332 99 62 66 100 201 229 214 183 143 93 15 47 147 196 191
0 17 0 0 0 0 61 367 398 580 580 570 605 626 641 614 613 610 621 484 531 358 494 151 210 346 560 860 997 806 356 474 457 547 816 995 1186 1300 1368 1414 1418 1403 1412 1463 1350 1259 1181 1074 1030 1110 1238 1317 1349 1355 1306 1208 1132 1002 860 837 809 748 631 692 301 102 469 419 367 347 307 206 71 81 138 174 174 166 154 131 86 46 81 101 127 75
88 86 101 251 269 471 513 615 704 703 688 662 685 648 662 651 697 692 600 689 600 730 514 436 276 445 606 896 1080 850 503 629 660 737 947 1126 1294 1369 1423 1387 1356 1282 1246 1229 1172 1177 1111 1017 1081 1213 1281 1297 1338 1346 1264 1121 984 881 831 736 721 674 626 498 104 122 190 361 374 281 0 4 36 60 142 213 194 113 50 75 85 83 121 61 2 1
185 0 62 399 244 386 519 742 738 653 754 738 721 712 651 670 695 703 729 668 724 796 802 550 521 579 731 924 1074 872 643 672 909 969 1129 1250 1395 1427 1475 1503 1486 1410 1283 1200 1122 1053 1036 1077 1147 1154 1193 1218 1219 1168 1014 917 858 493 483 634 659 672 625 542 140 125 233 343 234 140 76 62 140 145 126 135 124 139 110 55 72 77 48 6 2 0
22 0 266 53 95 321 401 771 656 648 595 650 687 754 810 755 714 733 820 819 768 832 903 761 704 809 939 1055 1069 1086 806 775 1062 1145 1240 1377 1506 1651 1654 1626 1567 1376 1192 1084 1065 1055 1106 1139 1159 1151 1170 1170 1050 973 855 724 754 429 203 94 490 466 452 471 379 48 66 81 75 64 56 102 118 126 164 165 131 105 108 49 34 106 100 7 4 0
1 25 299 114 284 483 712 693 674 571 553 537 570 585 681 826 783 755 839 882 903 911 940 1001 836 843 1016 1028 1042 992 869 871 1326 1421 1414 1559 1600 1665 1652 1525 1356 1188 1084 1030 1102 1062 989 882 950 1021 1137 1193 1126 1055 915 833 778 591 630 552 304 34 149 34 104 116 121 123 115 96 92 112 119 156 125 118 98 48 31 36 53 25 11 10 3 0
65 171 131 329 510 598 661 614 619 552 430 514 474 512 510 497 609 700 798 836 894 952 858 996 990 956 930 894 868 852 804 769 1077 1407 1437 1474 1454 1382 1339 1197 1109 1126 1161 1136 1074 952 954 897 858 821 834 971 1085 1064 964 792 673 727 624 471 269 113 96 181 160 111 180 235 225 85 111 122 134 136 147 133 123 45 22 2 1 2 2 2 0 0
137 176 242 386 354 567 514 554 445 363 451 430 444 421 407 422 451 585 614 746 788 885 888 865 894 803 899 915 1038 1061 992 1016 1122 1227 1301 1285 1270 1142 1037 1024 1096 1166 1217 1183 1003 910 879 816 821 724 670 634 681 771 855 802 602 539 489 362 167 118 136 160 154 120 248 97 147 154 104 123 130 121 108 75 16 2 30 4 7 4 3 4 3 0
Wind_Speed
nan nan nan nan nan nan nan nan nan nan nan nan nan nan nan nan nan nan nan nan nan nan nan nan nan nan nan nan nan 33 34 32 32 30 27 25 24 23 22 21 20 18 15 23 21 20 19 19 17 17 16 17 19 18 18 17 16 17 19 20 18 17 18 18 17 18 20 22 25 26 27 26 22 20 20 19 17 17 17 19 20 21 20 19 20 19
nan nan nan nan nan nan nan nan nan nan nan nan nan nan nan nan nan nan nan nan nan nan nan nan nan nan nan nan nan 35 33 29 29 27 23 21 22 23 21 20 19 19 27 26 20 19 20 18 17 17 17 19 20 17 17 17 16 16 17 17 18 18 18 19 17 18 20 22 22 25 26 25 21 18 18 17 16 17 19 21 21 20 19 20 20 19
nan nan nan nan nan nan nan nan nan nan nan nan nan nan nan nan nan nan nan nan nan nan nan nan nan nan nan nan nan 30 27 27 26 24 21 20 21 22 20 19 20 24 20 21 17 19 17 17 17 17 18 17 16 17 17 17 18 17 16 16 17 17 20 20 19 21 24 24 21 23 24 22 21 19 18 18 18 20 23 23 21 19 19 20 19 19
nan nan nan nan nan nan nan nan nan nan nan nan nan nan nan nan nan nan nan nan nan nan nan nan nan nan nan 25 25 25 27 29 26 23 22 21 21 21 20 21 22 20 20 18 19 17 17 16 16 17 17 16 16 16 16 17 18 17 16 16 17 19 21 21 20 22 25 24 24 27 26 24 21 18 18 20 22 23 25 23 20 19 18 19 19 19
nan nan nan nan nan nan nan nan nan nan nan nan nan nan nan nan nan nan nan nan nan nan nan nan nan nan nan nan nan 24 26 31 28 26 23 24 24 25 28 25 20 18 18 17 20 18 16 15 15 16 17 17 15 16 17 17 17 16 15 16 18 20 21 20 19 21 23 23 25 27 29 27 26 24 22 24 24 23 22 21 21 19 18 18 19 18
nan nan nan nan nan nan nan nan nan nan nan nan nan nan nan nan nan nan nan nan nan nan nan nan nan nan nan nan nan nan 28 26 30 25 22 22 25 26 22 18 19 18 17 17 17 17 15 14 17 17 17 16 15 16 17 18 17 17 16 18 20 21 21 18 17 19 20 20 22 24 26 26 24 24 23 22 20 20 21 21 20 21 18 18 18 16
nan nan nan nan nan nan nan nan nan nan nan nan nan nan nan nan nan nan nan nan nan nan nan nan nan nan nan nan nan 23 21 21 30 23 20 23 24 23 20 20 19 17 17 17 18 19 16 16 16 16 15 16 16 17 18 18 17 16 16 18 20 20 20 17 16 18 22 23 22 23 24 25 24 24 23 22 21 21 22 23 23 20 18 16 17 15
nan nan nan nan nan nan nan nan nan nan nan nan nan nan nan nan nan nan nan nan nan nan nan nan nan nan nan nan nan 26 23 20 20 18 19 20 20 18 18 18 17 17 16 17 17 19 18 17 16 15 15 16 18 19 18 18 16 15 16 18 19 19 18 16 17 19 21 22 22 24 25 25 25 24 22 21 22 23 23 24 23 20 17 15 15 16
nan nan nan nan nan nan nan nan nan nan nan nan nan nan nan nan nan nan nan nan nan nan nan nan nan nan nan nan 30 29 26 17 12 12 13 14 14 14 14 16 16 16 18 19 19 19 19 17 16 16 17 19 21 18 16 16 16 16 16 18 19 17 16 16 16 18 20 21 22 23 24 27 27 25 22 22 22 24 23 25 21 19 16 14 15 16
nan nan nan nan nan nan nan nan nan nan nan nan nan nan nan nan nan nan nan nan nan nan nan nan nan nan nan nan 32 30 23 13 10 9 8 10 11 13 14 14 16 18 19 20 21 21 21 19 19 19 21 21 20 18 18 17 17 16 16 17 18 16 14 15 17 19 22 22 23 25 25 28 26 23 22 22 24 23 23 23 18 16 16 14 14 15
nan nan nan nan nan nan nan nan nan nan nan nan nan nan nan nan nan nan nan nan nan nan nan nan nan nan nan nan nan 29 17 11 11 12 10 10 11 12 13 16 18 19 20 21 23 22 21 20 20 21 20 21 22 20 19 18 16 16 15 17 17 17 16 16 18 22 23 23 23 24 24 26 26 22 19 22 22 22 21 19 15 14 14 13 13 nan
nan nan nan nan nan nan nan nan nan nan nan nan nan nan nan nan nan nan nan nan nan nan nan nan nan nan nan nan nan 20 19 14 10 5 5 7 8 8 11 15 17 20 20 22 22 20 20 19 19 20 20 20 21 21 20 19 18 16 16 17 19 19 18 19 21 23 22 22 21 21 22 23 22 20 15 18 19 18 18 15 13 11 11 11 nan nan
nan nan nan nan nan nan nan nan nan nan nan nan nan nan nan nan nan nan nan nan nan nan nan nan nan nan nan nan nan nan 11 10 9 6 6 7 3 6 10 13 16 19 20 19 19 19 18 17 18 18 18 19 20 21 23 22 20 18 18 18 20 21 20 21 22 21 20 20 19 20 21 21 19 18 17 16 17 15 15 13 11 9 9 10 nan nan
nan nan nan nan nan nan nan nan nan nan nan nan nan nan nan nan nan nan nan nan nan nan nan nan nan nan nan nan nan nan nan 10 8 8 12 15 16 18 16 17 17 18 18 18 18 18 17 17 18 19 20 21 21 20 21 24 22 20 18 18 18 18 19 22 23 20 20 19 18 20 21 19 18 16 16 16 16 14 14 12 11 10 10 nan nan nan
nan nan nan nan nan nan nan nan nan nan nan nan nan nan nan nan nan nan nan nan nan nan nan nan nan nan nan nan nan nan 22 nan 19 21 20 20 22 24 23 21 21 19 18 17 16 16 18 20 21 20 20 22 22 19 20 22 22 19 17 15 15 19 19 21 21 19 18 18 20 21 19 17 17 15 17 17 16 15 14 13 13 13 12 nan nan nan
nan nan nan nan nan nan nan nan nan nan nan nan nan nan nan nan nan nan nan nan nan nan nan nan nan nan nan nan nan 27 nan nan 22 21 22 20 23 25 23 20 17 15 13 13 14 18 20 20 17 18 20 20 20 20 20 20 19 17 14 13 14 18 19 19 19 18 18 19 20 20 19 17 17 16 19 19 17 16 15 14 14 14 14 13 nan nan
nan nan nan nan nan nan nan nan nan nan nan nan nan nan nan nan nan nan nan nan nan nan nan nan nan nan nan nan 29 33 33 29 24 20 20 21 21 22 19 15 12 11 11 12 15 18 19 15 13 16 18 19 21 21 17 16 17 16 14 13 14 16 17 18 19 19 19 20 22 19 17 17 16 17 19 18 16 15 15 14 14 15 15 16 nan nan
nan nan nan nan nan nan nan nan nan nan nan nan nan nan nan nan nan nan nan nan nan nan nan nan nan nan nan nan nan 34 32 25 20 18 19 20 18 14 9 9 9 10 12 14 17 18 17 13 14 15 12 14 18 18 15 15 17 17 15 14 15 15 17 17 19 21 20 20 19 18 17 16 16 18 20 19 16 15 15 14 15 15 17 16 14 nan
nan nan nan nan nan nan nan nan nan nan nan nan nan nan nan nan nan nan nan nan nan nan nan nan nan nan nan nan nan nan 21 16 15 18 19 14 10 8 6 7 10 12 14 15 17 18 14 13 14 13 7 10 13 14 14 14 17 18 16 15 14 14 15 18 19 21 20 19 18 18 17 18 20 20 20 18 16 14 13 13 13 16 17 17 15 nan
nan nan nan nan nan nan nan nan nan nan nan nan nan nan nan nan nan nan nan nan nan nan nan nan nan nan nan nan nan nan nan 14 15 15 9 8 9 8 6 8 11 12 12 13 14 13 12 11 11 8 8 8 10 11 12 13 15 15 16 16 14 14 15 17 18 18 19 19 20 19 19 20 21 20 18 16 14 13 12 12 15 17 18 16 16 nan
nan nan nan nan nan nan nan nan nan nan nan nan nan nan nan nan nan nan nan nan nan nan nan nan nan nan nan nan nan nan nan 11 10 9 7 4 5 5 6 8 9 9 10 11 12 12 11 11 10 8 8 10 13 13 12 12 12 13 15 15 15 15 15 15 15 17 17 19 19 19 20 20 20 20 18 16 14 14 14 15 17 18 18 18 17 nan
nan nan nan nan nan nan nan nan nan nan nan nan nan nan nan nan nan nan nan nan nan nan nan nan nan nan nan nan nan nan nan 14 7 9 8 6 5 6 7 8 9 9 10 10 11 12 11 12 11 10 10 11 12 12 10 11 11 12 13 14 15 16 15 15 15 16 18 19 18 19 21 21 20 19 18 16 15 16 16 17 19 19 19 20 17 nan
nan nan nan nan nan nan nan nan nan nan nan nan nan nan nan nan nan nan nan nan nan nan nan nan nan nan nan nan nan nan nan nan 19 19 17 15 13 11 11 11 10 9 10 10 11 12 13 14 13 11 10 10 11 12 11 11 9 10 13 15 15 16 16 16 16 17 18 19 19 20 21 21 20 19 18 18 17 17 18 19 20 20 20 nan 19 nan
nan nan nan nan nan nan nan nan nan nan nan nan nan nan nan nan nan nan nan nan nan nan nan nan nan nan nan nan nan nan nan 20 19 16 16 17 17 15 15 14 10 10 11 12 14 14 13 15 16 14 12 11 10 11 10 11 10 11 13 15 16 16 17 17 17 18 19 20 21 22 21 20 19 19 19 20 20 20 20 21 22 21 nan nan 20 22
nan nan nan nan nan nan nan nan nan nan nan nan nan nan nan nan nan nan nan nan nan nan nan nan nan nan nan nan nan nan 22 20 17 16 18 19 19 19 19 17 15 13 15 16 18 19 17 17 16 13 13 13 11 10 11 11 11 12 14 16 16 17 17 18 18 19 20 21 22 21 20 20 19 20 22 23 22 21 21 22 23 nan nan 22 23 22
nan nan nan nan nan nan nan nan nan nan nan nan nan nan nan nan nan nan nan nan nan nan nan nan nan nan nan nan nan 27 23 20 17 19 21 20 19 19 19 19 18 17 17 19 21 23 23 21 17 13 12 14 13 12 12 13 13 14 15 16 18 19 18 18 18 20 20 21 22 21 21 21 21 22 24 25 24 22 22 23 24 nan nan 23 24 23
nan nan nan nan nan nan nan nan nan nan nan nan nan nan nan nan nan nan nan nan nan nan nan nan nan nan nan nan nan nan 22 17 15 18 20 21 21 20 19 20 19 19 20 22 24 23 23 21 17 12 10 13 15 13 14 16 17 17 18 19 20 19 19 19 19 20 21 21 22 22 21 21 21 22 24 24 23 22 23 24 24 nan 24 23 25 nan
nan nan nan nan nan nan nan nan nan nan nan nan nan nan nan nan nan nan nan nan nan nan nan nan nan nan nan nan nan nan 21 20 20 21 22 23 23 22 23 25 25 24 24 24 24 21 20 19 16 13 12 13 16 16 14 17 19 19 20 22 22 21 21 22 22 22 22 23 23 23 22 22 22 23 24 24 23 24 25 26 25 25 25 25 25 nan
nan nan nan nan nan nan nan nan nan nan nan nan nan nan nan nan nan nan nan nan nan nan nan nan nan nan nan nan nan nan nan 26 27 25 25 25 27 27 28 28 27 27 25 23 21 19 18 18 16 17 16 14 15 16 16 18 23 23 22 24 25 23 23 25 26 26 26 25 26 25 25 25 24 23 24 23 23 25 26 26 26 26 26 26 25 nan
nan nan nan nan nan nan nan nan nan nan nan nan nan nan nan nan nan nan nan nan nan nan nan nan nan nan nan nan nan nan nan 30 31 30 30 29 29 30 28 27 27 25 21 19 19 19 19 19 19 19 19 19 18 20 22 23 25 27 26 26 28 26 25 26 27 28 28 28 28 28 27 26 25 24 24 23 24 25 26 26 26 27 27 27 nan nan
nan nan nan nan nan nan nan nan nan nan nan nan nan nan nan nan nan nan nan nan nan nan nan nan nan nan nan nan nan nan 24 28 31 31 29 30 30 29 28 27 24 19 16 18 21 19 16 15 14 15 17 20 22 24 26 28 28 28 29 29 30 28 26 26 27 28 29 30 29 29 28 27 25 24 24 24 25 26 26 27 27 28 29 28 27 nan
nan nan nan nan nan nan nan nan nan nan nan nan nan nan nan nan nan nan nan nan nan nan nan nan nan nan nan nan 19 20 19 19 21 23 25 25 25 26 26 23 18 15 16 19 19 17 14 12 12 11 13 17 20 23 25 27 29 29 28 30 32 30 28 27 28 29 29 30 29 28 27 26 25 24 23 24 25 25 26 27 28 29 29 nan 28 nan
nan nan nan nan nan nan nan nan nan nan nan nan nan nan nan nan nan nan nan nan nan nan nan nan nan nan 17 18 21 17 14 13 16 17 21 21 20 20 20 16 13 13 16 20 19 16 14 13 13 14 15 17 18 20 23 26 28 28 29 29 33 33 29 28 28 29 30 29 28 26 25 26 25 24 23 24 25 26 27 29 29 29 29 28 28 28
nan nan nan nan nan nan nan nan nan nan nan nan nan nan nan nan nan nan nan nan nan nan nan nan nan nan 19 18 17 14 16 15 17 19 17 17 18 18 16 12 10 14 17 17 17 17 17 18 18 17 17 17 18 19 22 25 28 30 32 32 32 35 31 30 28 28 28 27 26 26 26 26 25 24 23 24 26 28 29 30 29 28 28 28 28 28
nan nan nan nan nan nan nan nan nan nan nan nan nan nan nan nan nan nan nan nan nan nan nan nan nan nan 26 22 20 18 17 19 19 19 20 18 18 16 12 9 9 10 10 12 12 14 17 18 18 18 18 18 19 20 22 23 27 30 31 33 34 34 34 30 28 26 26 27 27 28 27 25 24 24 25 26 28 29 30 30 29 28 27 28 28 28
nan nan nan nan nan nan nan nan nan nan nan nan nan nan nan nan nan nan nan nan nan nan nan nan nan nan 27 27 23 20 21 22 25 25 21 18 15 15 12 7 7 9 10 11 11 12 14 15 16 17 18 20 22 22 22 22 26 31 32 31 33 32 31 30 26 25 25 28 29 28 26 26 26 27 29 30 30 30 29 29 28 28 27 29 29 27
nan nan nan nan nan nan nan nan nan nan nan nan nan nan nan nan nan nan nan nan nan nan nan nan nan 33 31 27 24 22 22 26 28 25 23 17 15 13 12 10 11 12 14 17 19 19 20 20 21 20 22 22 22 23 22 26 32 34 32 29 29 29 30 30 27 25 26 29 30 30 29 29 30 31 34 35 35 34 32 31 29 27 26 29 27 25
nan nan nan nan nan nan nan nan nan nan nan nan nan nan nan nan nan nan nan nan nan nan nan nan nan 32 33 31 28 26 26 30 26 23 20 17 16 15 15 17 18 19 21 22 21 22 22 21 22 22 22 22 22 23 26 29 35 34 28 26 27 29 31 31 27 26 27 30 31 31 32 34 36 37 39 40 38 nan nan nan 26 nan nan 25 nan nan
nan nan nan nan nan nan nan nan nan nan nan nan 36 nan nan nan nan nan nan nan nan 32 nan nan nan 32 33 32 28 29 31 26 21 20 19 20 18 19 19 21 22 21 20 19 19 19 19 19 21 22 22 22 23 23 26 30 32 31 27 28 28 29 30 28 27 27 30 32 33 36 37 38 38 37 37 35 34 32 32 30 26 nan nan nan nan 23
nan nan nan nan nan nan nan nan nan nan nan 35 34 nan nan nan nan nan nan nan nan 31 29 nan nan 31 33 33 32 33 30 24 19 22 24 22 23 24 24 24 26 25 23 22 20 20 20 20 22 21 21 20 21 24 24 26 27 28 27 nan 26 26 24 24 27 32 37 37 38 39 39 38 37 35 36 36 34 34 35 33 31 nan nan nan 23 24
nan nan nan nan nan nan nan nan nan nan 30 30 32 nan nan nan nan nan nan nan nan 28 27 nan nan 29 32 33 31 30 22 27 27 28 29 31 30 26 25 26 27 27 25 24 23 24 23 21 22 21 21 19 20 21 22 23 23 23 23 24 nan 18 20 26 35 38 39 40 40 41 40 38 38 40 42 nan 37 36 35 33 33 nan nan 26 25 25
nan nan nan nan nan nan nan nan nan 24 25 27 30 nan nan nan nan nan 31 33 32 30 28 25 25 26 29 28 32 33 31 32 30 30 30 29 28 27 27 26 28 30 29 28 26 25 24 23 23 23 23 23 21 20 21 21 20 20 20 19 15 13 27 42 43 39 37 37 38 38 38 39 41 44 42 39 39 39 38 36 36 nan nan 27 26 27
nan nan nan nan nan nan nan nan nan 27 nan 27 nan nan 34 nan nan 32 33 34 30 30 28 27 25 24 27 27 29 33 33 36 36 34 32 31 31 31 29 27 25 27 29 30 28 26 27 26 24 24 24 24 22 21 21 20 20 20 21 18 19 28 32 34 37 38 40 41 40 37 36 37 40 41 nan 39 39 42 42 40 39 nan nan 30 28 28
nan nan nan nan nan nan nan nan 24 23 22 24 27 26 29 31 34 32 33 33 33 31 31 29 27 26 26 28 28 32 33 36 37 36 36 35 34 34 33 30 29 29 30 30 30 29 29 27 26 26 25 24 23 21 20 21 21 23 23 23 25 29 31 33 37 40 41 41 41 39 37 nan nan nan 42 42 42 44 46 43 nan nan nan 30 28 27
nan nan nan nan nan nan nan 22 21 19 19 19 19 22 24 27 30 29 29 30 32 33 33 33 29 30 31 31 32 32 34 33 34 35 36 36 36 35 34 32 30 30 30 31 31 30 30 29 27 26 25 23 22 21 21 22 24 26 27 25 27 32 32 33 35 38 39 39 40 39 38 39 nan nan 42 42 44 46 45 43 nan nan nan 31 27 nan
nan nan 29 31 27 24 24 21 20 21 21 23 19 18 21 26 28 28 28 31 30 30 31 33 33 34 35 33 36 35 34 33 36 37 38 39 39 38 37 36 35 35 34 33 32 31 31 31 30 28 27 25 24 26 27 29 28 28 26 28 33 36 35 34 34 35 34 35 37 38 nan nan nan nan 41 40 40 43 nan nan nan nan 36 nan nan nan
30 nan nan 28 25 27 24 23 23 20 20 22 22 23 22 24 25 24 25 26 24 27 31 34 34 36 37 37 38 39 38 38 38 38 39 40 40 38 37 36 35 34 32 29 29 32 33 32 31 29 28 26 25 29 31 32 32 31 29 31 34 34 33 33 34 34 34 35 35 37 nan nan 41 41 40 39 40 40 41 nan nan nan nan nan nan nan
nan nan 30 nan nan 24 19 20 19 18 18 19 22 25 24 26 25 24 22 21 21 23 25 29 32 36 36 39 39 42 41 41 41 41 42 42 41 40 38 35 34 33 30 28 28 31 32 32 31 30 30 28 28 31 32 32 32 28 28 nan 33 34 33 33 33 nan nan nan nan nan nan 38 41 42 40 39 40 41 39 nan nan 29 26 nan nan nan
nan nan 25 23 25 23 22 20 18 19 24 24 24 23 20 19 19 21 22 23 24 28 27 29 30 28 32 34 37 41 42 38 38 38 40 40 39 37 34 31 29 28 27 26 26 28 29 31 32 31 31 32 32 34 33 32 32 32 30 30 31 nan 34 nan 33 34 34 34 35 nan nan 37 38 39 39 38 nan nan nan nan nan nan nan nan nan nan
nan 26 25 27 29 24 21 18 19 20 20 21 23 23 22 21 20 25 29 32 30 30 27 29 31 31 30 30 32 34 35 34 36 35 33 32 32 31 29 26 25 26 26 25 27 29 31 31 32 32 34 36 36 36 35 34 34 33 31 30 30 32 nan 33 33 34 34 34 35 nan 38 38 38 38 38 38 37 nan nan nan nan nan nan nan nan nan
27 25 27 27 24 24 22 20 20 22 23 21 20 22 23 23 25 33 30 28 28 28 28 29 32 33 33 31 29 31 31 32 33 32 31 29 28 26 25 25 26 27 26 25 27 28 30 32 34 36 36 37 37 37 36 34 33 33 32 32 32 33 34 35 35 35 35 nan 35 37 39 38 37 36 36 nan nan nan nan nan nan nan nan nan nan nan
Wind_Direction
nan nan nan nan nan nan nan nan nan nan nan nan nan nan nan nan nan nan nan nan nan nan nan nan nan nan nan nan nan 247 248 241 249 260 263 261 262 262 262 266 273 279 282 262 265 271 277 280 281 289 291 286 280 279 281 273 260 264 272 273 270 261 263 264 257 249 249 240 235 233 238 241 242 247 250 251 251 251 250 251 253 258 264 270 273 273
nan nan nan nan nan nan nan nan nan nan nan nan nan nan nan nan nan nan nan nan nan nan nan nan nan nan nan nan nan 242 250 252 255 259 267 269 264 263 270 272 274 270 250 258 268 271 274 279 283 286 286 280 286 283 278 277 267 263 267 274 267 259 261 261 256 250 248 241 238 238 239 242 244 245 252 251 249 249 245 247 252 257 264 268 274 277
nan nan nan nan nan nan nan nan nan nan nan nan nan nan nan nan nan nan nan nan nan nan nan nan nan nan nan nan nan 241 251 244 250 261 269 269 263 261 265 270 268 262 266 265 269 271 276 283 284 282 283 282 288 289 288 273 263 259 260 260 260 258 261 261 261 255 249 240 236 240 242 247 239 228 236 245 243 243 246 244 248 255 263 270 274 278
nan nan nan nan nan nan nan nan nan nan nan nan nan nan nan nan nan nan nan nan nan nan nan nan nan nan nan 222 232 229 235 229 234 238 234 239 256 264 269 272 274 276 273 274 279 283 278 281 280 278 282 286 281 279 275 270 266 259 257 256 259 259 259 263 262 254 244 240 231 231 244 238 238 245 243 238 237 241 245 245 247 250 261 270 275 276
nan nan nan nan nan nan nan nan nan nan nan nan nan nan nan nan nan nan nan nan nan nan nan nan nan nan nan nan nan 225 228 224 227 227 224 226 230 233 232 239 256 273 278 275 266 271 276 283 290 290 279 278 282 280 279 273 265 258 263 260 258 256 257 258 255 245 242 240 234 236 237 241 241 235 236 239 234 238 245 248 247 251 260 269 274 273
nan nan nan nan nan nan nan nan nan nan nan nan nan nan nan nan nan nan nan nan nan nan nan nan nan nan nan nan nan nan 237 226 226 232 224 228 235 240 244 251 254 254 258 269 273 268 270 271 267 271 276 280 278 277 276 272 263 257 257 257 254 252 252 254 247 241 240 244 248 246 247 244 241 242 240 244 250 247 248 249 250 252 258 270 270 263
nan nan nan nan nan nan nan nan nan nan nan nan nan nan nan nan nan nan nan nan nan nan nan nan nan nan nan nan nan 245 248 237 228 230 225 229 236 245 249 252 258 262 262 258 255 260 266 264 266 268 272 273 271 267 269 266 257 255 254 256 256 253 248 247 246 241 240 244 246 250 249 250 249 246 230 231 236 245 245 249 252 255 258 264 266 247
nan nan nan nan nan nan nan nan nan nan nan nan nan nan nan nan nan nan nan nan nan nan nan nan nan nan nan nan nan 241 249 242 234 231 230 236 245 253 257 262 264 263 261 258 258 258 257 257 262 268 267 266 262 261 267 262 254 256 257 258 257 252 251 245 243 240 241 248 244 244 244 245 246 244 243 240 239 241 249 253 255 260 261 257 247 242
nan nan nan nan nan nan nan nan nan nan nan nan nan nan nan nan nan nan nan nan nan nan nan nan nan nan nan nan 227 243 247 242 243 245 244 249 259 268 270 267 263 258 251 247 247 252 252 250 251 251 255 254 255 258 263 262 252 249 253 258 257 259 255 245 243 242 238 243 248 248 245 239 232 237 238 240 242 247 250 256 255 258 255 247 236 235
nan nan nan nan nan nan nan nan nan nan nan nan nan nan nan nan nan nan nan nan nan nan nan nan nan nan nan nan 229 237 236 245 263 271 264 267 273 274 272 266 255 247 243 240 238 240 239 240 240 243 246 252 252 250 255 258 256 253 254 262 264 264 255 247 244 242 241 242 246 248 247 248 243 239 234 241 249 249 251 255 253 251 247 243 239 233
nan nan nan nan nan nan nan nan nan nan nan nan nan nan nan nan nan nan nan nan nan nan nan nan nan nan nan nan nan 246 242 259 252 241 247 249 255 268 271 266 253 242 237 233 234 236 236 236 238 244 247 249 251 251 258 261 260 257 258 262 264 261 253 249 245 244 245 244 246 248 249 255 255 238 237 251 251 251 252 254 249 249 246 236 235 nan
nan nan nan nan nan nan nan nan nan nan nan nan nan nan nan nan nan nan nan nan nan nan nan nan nan nan nan nan nan 230 225 234 259 261 282 273 282 290 275 260 248 240 233 230 232 237 241 243 241 245 250 258 263 266 269 264 256 254 253 257 259 253 254 246 241 243 244 246 248 250 255 258 261 263 249 255 260 260 261 256 252 245 237 226 nan nan
nan nan nan nan nan nan nan nan nan nan nan nan nan nan nan nan nan nan nan nan nan nan nan nan nan nan nan nan nan nan 215 212 224 197 225 247 241 242 246 249 238 234 232 232 233 237 242 246 249 253 258 265 274 277 276 267 255 248 248 255 258 251 249 246 244 244 244 246 249 253 257 255 248 251 251 245 254 252 253 251 252 245 236 230 nan nan
nan nan nan nan nan nan nan nan nan nan nan nan nan nan nan nan nan nan nan nan nan nan nan nan nan nan nan nan nan nan nan 211 210 199 211 218 216 226 234 235 230 225 228 227 233 237 242 246 248 250 247 250 255 261 264 263 255 244 242 249 255 249 247 246 247 245 245 249 252 252 255 251 243 246 255 254 256 244 238 245 253 250 250 nan nan nan
nan nan nan nan nan nan nan nan nan nan nan nan nan nan nan nan nan nan nan nan nan nan nan nan nan nan nan nan nan nan 197 nan 211 217 228 237 240 241 246 243 231 223 221 227 234 241 246 249 252 255 255 255 254 247 244 253 253 243 241 247 252 244 243 246 249 246 249 250 248 250 256 254 248 252 253 255 253 247 242 239 245 241 245 nan nan nan
nan nan nan nan nan nan nan nan nan nan nan nan nan nan nan nan nan nan nan nan nan nan nan nan nan nan nan nan nan 201 nan nan 226 233 244 249 251 257 260 259 246 233 230 234 241 246 251 256 268 270 266 265 262 248 236 249 247 241 241 243 242 246 244 245 250 249 251 250 251 250 250 250 251 248 249 250 245 238 241 246 243 240 243 251 nan nan
nan nan nan nan nan nan nan nan nan nan nan nan nan nan nan nan nan nan nan nan nan nan nan nan nan nan nan nan 206 205 217 215 226 237 247 255 266 273 274 265 257 247 242 244 248 252 259 266 279 276 269 258 249 244 244 246 240 242 243 239 239 243 245 247 248 245 243 245 248 250 255 254 253 254 259 256 249 245 241 241 236 238 245 250 nan nan
nan nan nan nan nan nan nan nan nan nan nan nan nan nan nan nan nan nan nan nan nan nan nan nan nan nan nan nan nan 209 219 219 222 237 245 255 271 296 290 267 257 255 254 259 262 263 269 274 275 259 260 254 243 243 248 245 235 238 243 243 243 241 246 244 243 242 243 246 250 258 260 256 253 254 250 247 249 245 244 235 234 240 248 250 249 nan
nan nan nan nan nan nan nan nan nan nan nan nan nan nan nan nan nan nan nan nan nan nan nan nan nan nan nan nan nan nan 227 228 229 241 254 270 300 337 323 292 272 267 268 271 272 269 273 273 274 281 264 245 241 244 243 236 233 236 245 250 249 248 247 245 243 244 239 240 244 250 253 252 251 248 245 242 245 242 243 244 244 248 250 249 250 nan
nan nan nan nan nan nan nan nan nan nan nan nan nan nan nan nan nan nan nan nan nan nan nan nan nan nan nan nan nan nan nan 236 245 255 273 305 334 329 323 305 292 281 272 267 267 269 270 273 281 288 271 251 243 243 235 232 232 243 247 254 250 246 246 246 246 243 243 243 251 252 249 247 251 251 250 249 248 240 244 248 249 251 252 252 251 nan
nan nan nan nan nan nan nan nan nan nan nan nan nan nan nan nan nan nan nan nan nan nan nan nan nan nan nan nan nan nan nan 229 265 281 271 291 324 301 287 293 287 275 268 264 266 273 275 273 275 277 258 238 229 232 229 222 237 242 244 251 255 255 250 247 240 235 236 246 254 262 263 261 258 255 249 246 239 245 248 244 245 248 250 249 253 nan
nan nan nan nan nan nan nan nan nan nan nan nan nan nan nan nan nan nan nan nan nan nan nan nan nan nan nan nan nan nan nan 221 230 242 244 240 271 268 256 279 288 278 271 271 267 276 278 274 275 270 259 249 243 244 240 218 230 244 250 252 252 249 244 244 238 235 239 241 248 257 259 259 253 250 244 243 241 251 251 245 246 249 249 252 254 nan
nan nan nan nan nan nan nan nan nan nan nan nan nan nan nan nan nan nan nan nan nan nan nan nan nan nan nan nan nan nan nan nan 214 217 213 215 222 224 232 252 262 269 277 279 268 279 280 281 283 281 276 267 262 249 236 220 229 241 252 254 250 248 242 244 242 240 240 241 243 249 251 253 250 245 242 244 246 253 248 245 247 247 251 nan 255 nan
nan nan nan nan nan nan nan nan nan nan nan nan nan nan nan nan nan nan nan nan nan nan nan nan nan nan nan nan nan nan nan 232 232 234 234 229 228 229 240 253 266 271 265 260 250 262 282 287 281 271 278 271 257 247 239 231 234 238 246 253 252 251 247 245 247 245 242 239 240 245 248 247 244 243 241 245 249 252 245 244 244 245 nan nan 256 259
nan nan nan nan nan nan nan nan nan nan nan nan nan nan nan nan nan nan nan nan nan nan nan nan nan nan nan nan nan nan 234 240 239 232 241 244 236 236 242 249 256 264 269 269 264 261 280 292 294 277 262 268 254 245 247 246 245 243 248 254 256 251 249 248 249 247 241 241 244 244 247 247 245 245 246 249 249 249 244 243 244 nan nan 255 256 259
nan nan nan nan nan nan nan nan nan nan nan nan nan nan nan nan nan nan nan nan nan nan nan nan nan nan nan nan nan 220 231 232 226 230 234 243 248 250 250 257 262 264 267 270 271 265 280 293 294 277 256 258 252 248 257 262 260 253 252 258 257 253 249 250 250 248 243 241 245 246 253 253 250 251 251 251 250 248 243 244 245 nan nan 257 260 259
nan nan nan nan nan nan nan nan nan nan nan nan nan nan nan nan nan nan nan nan nan nan nan nan nan nan nan nan nan nan 222 230 224 231 244 248 251 260 269 273 275 272 272 278 279 270 274 286 294 281 259 252 248 245 258 262 262 259 255 255 254 254 250 249 249 247 244 243 248 254 259 260 257 254 252 251 251 246 242 243 247 nan 255 257 263 nan
nan nan nan nan nan nan nan nan nan nan nan nan nan nan nan nan nan nan nan nan nan nan nan nan nan nan nan nan nan nan 211 215 215 220 233 245 254 266 275 277 278 279 276 275 278 281 285 286 280 270 257 244 242 244 248 268 265 260 261 259 253 252 248 243 247 249 249 252 255 261 264 261 259 254 249 248 248 245 244 246 248 251 254 258 263 nan
nan nan nan nan nan nan nan nan nan nan nan nan nan nan nan nan nan nan nan nan nan nan nan nan nan nan nan nan nan nan nan 212 213 218 227 239 250 262 273 279 283 287 287 284 283 285 283 282 271 259 254 254 253 253 252 266 272 264 258 262 260 253 249 247 248 249 251 254 260 264 265 263 258 252 248 247 247 246 246 247 249 252 255 257 260 nan
nan nan nan nan nan nan nan nan nan nan nan nan nan nan nan nan nan nan nan nan nan nan nan nan nan nan nan nan nan nan nan 222 225 233 239 248 260 268 274 280 284 289 291 285 280 276 268 264 259 259 257 260 269 266 262 262 270 272 266 260 260 256 248 248 250 252 252 255 258 261 263 263 259 254 248 248 247 247 248 249 250 253 256 258 nan nan
nan nan nan nan nan nan nan nan nan nan nan nan nan nan nan nan nan nan nan nan nan nan nan nan nan nan nan nan nan nan 224 233 236 239 243 247 255 264 270 275 279 284 281 272 265 271 279 281 273 263 259 258 261 267 268 267 262 262 265 262 261 258 251 247 251 253 256 255 257 260 261 260 257 252 249 248 247 248 250 250 250 253 256 259 262 nan
nan nan nan nan nan nan nan nan nan nan nan nan nan nan nan nan nan nan nan nan nan nan nan nan nan nan nan nan 224 229 236 240 240 237 239 243 249 256 262 267 275 277 270 268 269 267 275 284 286 282 273 266 264 264 264 266 265 259 258 261 262 257 252 247 249 252 253 256 258 261 262 258 254 248 246 246 250 250 249 250 252 255 258 nan 263 nan
nan nan nan nan nan nan nan nan nan nan nan nan nan nan nan nan nan nan nan nan nan nan nan nan nan nan 214 223 228 219 233 232 230 235 239 239 242 248 257 267 278 279 268 265 270 271 271 283 290 289 280 275 276 274 269 264 262 263 255 252 258 256 251 250 249 250 252 255 259 261 258 255 250 244 242 243 248 249 250 252 254 257 261 264 264 267
nan nan nan nan nan nan nan nan nan nan nan nan nan nan nan nan nan nan nan nan nan nan nan nan nan nan 211 218 224 225 218 201 202 207 228 255 252 248 254 263 262 256 253 255 259 262 261 262 268 275 279 276 275 273 265 260 256 254 258 255 253 258 251 248 247 249 252 256 259 259 254 250 245 244 245 247 249 251 254 257 260 261 262 265 267 271
nan nan nan nan nan nan nan nan nan nan nan nan nan nan nan nan nan nan nan nan nan nan nan nan nan nan 214 217 219 219 211 201 211 217 220 225 244 258 278 280 271 279 290 284 272 261 260 264 264 265 270 268 266 265 266 261 255 253 255 258 256 254 255 249 249 247 251 254 254 252 248 245 245 247 248 248 250 253 258 262 264 266 267 272 277 281
nan nan nan nan nan nan nan nan nan nan nan nan nan nan nan nan nan nan nan nan nan nan nan nan nan nan 222 219 213 211 218 214 213 209 220 231 246 268 276 279 279 280 293 298 293 271 261 264 268 268 270 264 263 262 264 262 259 257 250 253 260 255 256 257 255 251 246 250 250 248 245 244 243 244 246 248 250 255 259 263 269 271 269 270 268 266
nan nan nan nan nan nan nan nan nan nan nan nan nan nan nan nan nan nan nan nan nan nan nan nan nan 223 227 227 231 227 222 216 213 209 213 234 247 256 280 285 283 298 290 265 258 253 250 256 262 262 263 268 272 272 270 264 259 254 256 256 253 251 251 256 254 247 248 250 248 245 242 242 245 246 247 247 248 247 252 257 259 263 268 272 271 271
nan nan nan nan nan nan nan nan nan nan nan nan nan nan nan nan nan nan nan nan nan nan nan nan nan 229 235 238 237 237 231 223 214 206 211 218 234 242 232 238 248 255 262 268 262 258 257 257 258 261 264 266 270 274 267 267 271 268 259 256 257 251 250 246 246 251 252 249 247 246 244 244 248 250 252 254 256 nan nan nan 255 nan nan 274 nan nan
nan nan nan nan nan nan nan nan nan nan nan nan 194 nan nan nan nan nan nan nan nan 216 nan nan nan 231 241 247 248 241 234 233 222 215 221 234 231 235 243 244 254 262 267 271 272 268 262 258 262 265 265 269 270 265 267 270 272 272 268 258 256 253 251 251 254 256 254 248 245 244 246 250 253 258 266 275 275 274 274 272 270 nan nan nan nan 266
nan nan nan nan nan nan nan nan nan nan nan 200 196 nan nan nan nan nan nan nan nan 209 215 nan nan 240 241 241 245 246 249 250 233 227 235 248 244 242 250 253 256 263 263 259 257 266 265 257 256 261 272 277 274 269 268 267 272 274 272 nan 265 259 253 251 253 250 243 243 245 247 248 252 258 262 267 267 263 259 261 262 262 nan nan nan 264 268
nan nan nan nan nan nan nan nan nan nan 196 197 196 nan nan nan nan nan nan nan nan 210 214 nan nan 232 240 245 243 248 242 244 242 238 245 254 251 248 246 251 257 260 262 258 262 269 270 269 271 273 276 275 274 272 270 266 264 268 272 271 nan 262 257 252 244 240 237 237 242 248 251 253 258 258 256 nan 259 259 261 265 267 nan nan 267 265 268
nan nan nan nan nan nan nan nan nan 195 195 197 197 nan nan nan nan nan 210 213 213 210 215 226 229 230 239 247 240 232 237 240 242 245 257 264 267 264 262 261 258 253 245 242 255 263 263 259 257 257 256 260 269 267 263 260 258 257 263 271 288 270 238 235 239 240 242 244 243 245 250 254 255 261 265 265 267 268 265 264 266 nan nan 266 271 275
nan nan nan nan nan nan nan nan nan 209 nan 205 nan nan 209 nan nan 214 213 212 215 215 218 221 233 231 238 240 232 232 237 240 244 248 252 256 263 270 272 268 263 257 252 248 250 255 263 255 251 254 256 257 262 260 258 257 252 246 251 259 250 246 250 254 249 249 249 247 246 248 254 259 267 269 nan 272 273 272 269 267 266 nan nan 267 272 276
nan nan nan nan nan nan nan nan 200 202 195 200 205 209 204 209 210 216 220 213 215 218 219 223 224 234 234 237 239 235 238 243 245 249 252 254 256 259 262 261 256 252 249 248 255 259 259 254 248 248 248 252 254 255 257 257 250 245 248 250 250 254 257 254 253 254 253 251 252 253 256 nan nan nan 265 270 272 273 274 271 nan nan nan 265 272 277
nan nan nan nan nan nan nan 195 197 197 197 196 206 203 204 201 209 219 226 224 222 217 221 223 225 232 239 243 240 240 239 240 246 251 256 256 256 257 261 263 264 262 258 257 256 255 252 253 250 248 249 250 255 251 251 248 252 248 248 244 250 255 258 258 258 255 257 259 258 256 256 257 nan nan 269 276 280 280 279 273 nan nan nan 261 267 nan
nan nan 191 202 195 190 194 197 192 196 198 194 198 202 201 200 204 217 222 225 225 223 221 223 229 235 239 242 245 240 243 247 249 249 252 254 257 257 257 259 262 263 260 256 253 250 245 243 246 249 248 242 242 241 239 239 248 255 252 246 244 249 252 255 257 260 263 263 260 257 nan nan nan nan 275 280 282 288 nan nan nan nan 262 nan nan nan
184 nan nan 203 194 200 199 192 200 196 196 201 197 196 202 205 204 208 214 220 219 220 221 223 231 237 242 240 244 249 248 250 250 252 255 257 260 262 264 265 266 267 267 263 256 249 244 244 244 247 249 249 244 244 244 246 245 248 252 253 254 258 262 266 269 266 267 269 268 265 nan nan 265 269 274 279 280 282 285 nan nan nan nan nan nan nan
nan nan 204 nan nan 201 204 203 205 208 212 207 207 206 202 199 203 208 213 215 217 220 225 221 226 233 237 243 247 251 250 249 252 255 257 259 262 264 265 266 267 263 258 256 249 244 243 245 246 247 248 249 248 249 252 255 259 262 262 nan 265 266 266 266 264 nan nan nan nan nan nan 270 276 278 279 281 283 281 279 nan nan 268 266 nan nan nan
nan nan 203 203 208 205 213 219 218 225 224 218 211 211 207 206 208 213 218 222 222 224 222 224 224 229 237 245 249 254 255 254 254 255 258 261 261 262 261 259 257 258 259 259 253 250 249 247 248 248 249 248 247 251 255 260 260 258 259 260 262 nan 270 nan 269 267 267 270 271 nan nan 274 279 281 283 283 nan nan nan nan nan nan nan nan nan nan
nan 209 211 220 225 225 233 233 237 238 231 220 216 215 212 213 219 224 221 221 219 221 221 227 225 225 230 235 244 249 254 257 257 255 255 255 256 255 254 252 252 253 251 249 246 242 241 243 248 248 247 245 245 247 251 255 256 258 261 261 262 267 nan 269 269 268 268 267 267 nan 268 269 272 276 281 286 289 nan nan nan nan nan nan nan nan nan
219 221 227 228 238 230 229 233 238 245 239 230 227 218 224 222 230 234 227 225 222 223 223 228 229 226 227 228 233 245 249 251 252 251 251 247 246 245 245 249 251 249 249 249 249 244 244 242 243 245 246 247 248 251 254 255 255 258 260 260 260 261 263 266 266 265 264 nan 267 271 271 273 277 281 283 nan nan nan nan nan nan nan nan nan nan nan